ALTAIR (RS65S)

Last updated on Sun Aug 09 2026 00:03:16 GMT+0000 (Coordinated Universal Time)

1 61779U 24199AW 26220.63473091 .00005467 00000+0 14832-3 0 9992 2 61779 97.2959 89.6533 0014227 114.0825 246.1910 15.37932110145177
UTC large
Height (km)
Speed (km/s)
/
Latitude / Longitude
Inclination (degrees)
Orbital Period (minutes)
Azimuth
Elevation
Range (km)
Doppler Factor

Next 0 passes for location: London (51.5072 / 0.1276)

No passes found over London.
ALTAIR (RS65S)